GFSMW_850_temp_024.txt.gz
Temp
18 17 17 17 17 16 16 16 15 15 14 14 14 14 14 14 13 13 12 11 11 10 10 10 9 9 9 8 8 9 9 8 8 8 8 9 9 10 10 10 10 10 9
17 16 15 15 15 14 14 14 14 13 13 13 13 13 12 12 12 12 11 11 10 10 9 9 8 7 7 7 7 7 7 7 7 8 8 8 8 8 9 10 10 10 10
17 16 15 13 13 13 13 13 12 12 13 13 12 12 12 12 12 12 12 11 10 9 8 7 7 7 6 6 6 6 6 6 6 6 7 6 7 7 8 9 9 8 8
17 16 14 13 12 12 12 12 12 11 11 12 11 11 10 10 10 10 9 9 9 7 7 7 7 6 6 5 5 4 5 5 5 5 6 6 3 4 5 6 7 7 6
16 15 14 13 12 12 11 11 12 12 11 10 9 9 8 8 8 8 7 7 7 7 7 6 5 5 5 4 3 3 3 3 3 3 2 3 4 2 2 2 3 4 5
16 15 15 14 13 12 12 11 11 11 11 10 9 9 8 7 7 7 6 6 5 5 5 4 4 4 3 3 3 2 2 1 0 0 0 0 -0 0 0 1 1 0 2
15 15 15 14 13 13 12 11 11 10 10 10 9 9 8 7 6 6 5 4 4 3 3 3 3 2 3 2 2 2 1 0 -0 -0 -1 -1 -1 -1 -1 -2 -2 -3 -2
15 15 14 14 13 13 12 11 11 10 10 9 9 8 7 6 6 5 4 4 2 2 2 2 2 2 1 1 0 -0 -1 -1 -1 -2 -2 -2 -2 -2 -2 -3 -2 -2 -1
15 15 14 14 13 12 11 11 10 10 9 8 7 6 6 6 5 4 3 2 2 1 2 1 1 0 -0 -0 -1 -1 -1 -1 -2 -2 -2 -2 -2 -2 -2 -3 -3 -3 -3
15 14 14 13 12 11 11 10 9 9 8 7 6 6 5 4 4 3 2 2 1 1 1 0 -0 -0 -1 -1 -1 -1 -1 -2 -2 -2 -2 -2 -2 -3 -2 -3 -3 -3 -3
14 14 13 12 11 10 10 9 9 8 7 6 5 5 4 4 3 2 2 1 1 1 -0 -1 -1 -1 -1 -2 -2 -3 -3 -3 -3 -3 -3 -3 -3 -4 -3 -4 -3 -3 -2
14 13 12 11 10 10 9 9 8 7 6 5 4 4 4 3 3 2 1 -0 -0 -0 -1 -1 -1 -1 -2 -2 -3 -3 -3 -3 -3 -3 -3 -3 -3 -3 -3 -3 -3 -3 -3
13 12 11 10 10 9 8 8 7 6 5 5 4 3 3 2 1 0 -1 -1 -1 -1 -1 -1 -1 -2 -2 -2 -3 -3 -3 -3 -3 -4 -4 -4 -4 -4 -4 -4 -4 -4 -4
12 11 10 9 8 8 7 7 6 5 5 4 3 3 2 2 0 -0 -1 -1 -1 -1 -1 -2 -2 -2 -3 -3 -3 -3 -3 -4 -4 -5 -5 -5 -5 -5 -5 -5 -5 -5 -5
11 9 7 7 7 7 7 6 6 5 4 4 3 3 2 1 0 -0 -1 -2 -2 -2 -2 -2 -3 -3 -3 -3 -4 -4 -5 -5 -5 -6 -6 -7 -6 -5 -5 -5 -5 -6 -6
8 7 6 6 7 7 6 6 5 5 4 4 3 3 2 0 -0 -1 -1 -2 -2 -2 -3 -3 -3 -3 -4 -4 -4 -5 -6 -6 -7 -7 -7 -7 -7 -6 -6 -7 -7 -6 -7
6 6 6 7 7 6 6 6 5 5 3 3 3 3 2 -0 -1 -1 -2 -2 -2 -3 -3 -3 -4 -4 -5 -5 -6 -6 -7 -8 -8 -9 -9 -8 -8 -8 -8 -8 -8 -7 -8
6 6 7 7 6 6 6 5 5 4 4 3 3 3 1 -0 -1 -2 -2 -2 -3 -3 -3 -4 -4 -5 -5 -6 -7 -7 -8 -9 -9 -10 -10 -9 -9 -9 -9 -9 -8 -8 -8
6 6 7 6 6 5 5 4 4 4 4 4 1 0 -1 -1 -1 -2 -2 -2 -3 -3 -4 -5 -5 -5 -6 -7 -8 -8 -9 -9 -10 -10 -10 -10 -10 -10 -9 -9 -9 -9 -8
7 6 6 6 5 5 4 3 3 3 3 1 -0 -1 -1 -2 -1 -2 -4 -3 -3 -3 -4 -5 -5 -6 -7 -8 -8 -9 -9 -10 -10 -10 -10 -10 -10 -10 -9 -9 -9 -9 -9
6 6 6 5 4 4 3 2 2 2 1 0 -0 -1 -1 -1 -2 -3 -5 -4 -4 -4 -5 -5 -6 -7 -8 -9 -9 -9 -10 -11 -11 -11 -11 -11 -10 -10 -10 -10 -10 -10 -10
6 5 4 4 3 3 2 2 1 1 -0 -1 -1 -2 -2 -3 -3 -4 -4 -4 -4 -5 -5 -6 -7 -8 -9 -9 -10 -10 -11 -11 -12 -12 -11 -11 -11 -10 -10 -10 -10 -10 -11
4 4 3 3 2 2 2 1 0 -1 -1 -3 -3 -4 -4 -4 -4 -4 -5 -4 -5 -5 -6 -8 -9 -9 -10 -10 -11 -11 -11 -12 -12 -12 -12 -11 -11 -11 -11 -10 -10 -10 -10
3 3 2 2 2 2 1 0 -1 -2 -3 -4 -4 -5 -5 -5 -4 -5 -5 -5 -6 -6 -7 -9 -9 -10 -10 -12 -12 -13 -13 -13 -12 -12 -11 -11 -11 -11 -11 -11 -11 -10 -10
2 2 2 2 1 0 -0 -1 -3 -3 -4 -5 -5 -5 -5 -5 -5 -6 -6 -6 -7 -7 -8 -9 -10 -10 -11 -12 -13 -13 -14 -13 -13 -12 -12 -12 -12 -12 -12 -12 -11 -11 -11
1 1 1 0 -0 -1 -2 -3 -4 -4 -5 -5 -6 -6 -6 -6 -6 -6 -7 -8 -8 -8 -9 -9 -10 -10 -11 -12 -14 -14 -14 -13 -13 -12 -12 -13 -13 -13 -12 -12 -12 -12 -12

GFSMW_850_temp_027.txt.gz
Temp
16 16 16 17 17 17 17 17 16 16 15 14 14 13 13 13 13 12 12 11 11 11 11 10 9 8 8 8 7 7 7 7 7 7 7 7 7 7 8 8 9 9 9
15 15 15 15 16 15 15 15 15 14 14 13 13 13 13 13 12 11 11 10 10 9 8 8 8 7 7 7 6 6 6 6 6 6 6 6 7 7 7 7 8 7 7
15 15 14 14 14 14 13 13 14 14 13 13 12 12 12 12 11 11 10 9 9 8 8 7 7 7 6 6 5 5 5 5 4 4 4 3 3 3 5 6 6 7 7
14 14 13 13 13 12 12 12 12 12 12 11 11 11 10 10 9 9 9 8 8 7 7 7 6 6 5 5 5 4 3 3 3 3 3 2 1 0 2 3 3 4 5
15 14 14 13 13 12 12 12 11 11 10 10 10 10 9 8 8 7 7 7 6 6 6 6 5 4 4 3 3 3 3 3 2 2 1 1 1 1 -0 0 1 2 3
15 15 14 13 13 12 12 11 11 11 10 10 9 9 8 8 7 7 7 6 5 5 4 3 3 2 2 2 2 2 2 2 1 1 -0 -1 -2 -1 -1 -1 -0 -1 0
15 14 14 13 13 12 12 11 11 10 10 10 9 8 7 7 6 6 6 5 5 4 3 2 2 1 2 2 2 1 0 -0 -0 -1 -1 -2 -2 -2 -2 -2 -2 -2 -1
15 15 14 13 13 12 12 11 11 10 9 9 8 8 7 6 5 5 4 4 3 2 1 1 1 1 0 0 -0 -0 -1 -2 -1 -1 -1 -2 -2 -2 -2 -2 -3 -2 -2
15 14 14 13 12 12 11 10 10 9 9 8 7 6 5 5 4 4 4 3 2 1 1 1 0 -0 -0 -1 -1 -2 -2 -2 -2 -2 -2 -3 -2 -3 -2 -2 -3 -3 -3
14 13 13 12 12 11 11 10 9 9 8 7 6 5 5 4 4 4 3 2 1 1 0 -0 -1 -1 -1 -2 -2 -2 -2 -3 -2 -3 -3 -3 -3 -4 -4 -4 -4 -4 -4
13 12 12 11 11 10 9 9 8 8 7 6 6 5 5 4 3 3 2 2 2 1 -0 -1 -1 -1 -2 -2 -2 -3 -3 -3 -3 -3 -4 -4 -4 -4 -4 -4 -4 -4 -4
13 12 11 10 10 9 9 8 7 7 6 6 5 4 4 4 3 3 2 2 0 -1 -1 -1 -1 -2 -2 -2 -3 -3 -3 -3 -3 -3 -4 -4 -4 -4 -4 -4 -4 -4 -4
11 10 10 9 9 8 7 7 7 6 6 5 5 4 4 3 3 2 2 1 -0 -1 -2 -2 -2 -2 -2 -3 -3 -3 -3 -4 -4 -4 -4 -5 -5 -5 -5 -5 -5 -5 -5
9 9 8 8 8 7 7 7 6 6 5 5 4 4 3 3 2 2 1 1 -0 -1 -2 -2 -2 -3 -3 -3 -4 -4 -4 -4 -5 -5 -6 -6 -6 -6 -7 -6 -6 -6 -5
8 7 7 7 7 7 6 6 6 6 5 5 4 3 3 2 2 1 -0 -1 -1 -2 -2 -2 -3 -3 -4 -4 -4 -4 -4 -5 -6 -6 -7 -7 -7 -8 -8 -7 -7 -7 -7
6 6 6 6 7 6 6 6 6 5 5 4 4 3 3 1 0 -1 -1 -3 -2 -2 -2 -3 -3 -4 -4 -4 -5 -5 -6 -6 -7 -7 -8 -8 -9 -9 -9 -8 -9 -8 -8
6 6 6 6 6 6 6 5 4 4 4 3 3 2 1 0 0 -1 -2 -3 -2 -2 -3 -3 -4 -4 -5 -5 -5 -6 -7 -7 -8 -9 -9 -9 -10 -10 -10 -9 -9 -9 -9
6 6 6 6 6 6 5 4 3 3 3 2 1 1 1 -0 -2 -2 -3 -3 -3 -3 -3 -4 -4 -5 -5 -6 -7 -7 -8 -8 -9 -9 -10 -10 -10 -10 -10 -10 -10 -9 -9
6 6 6 5 5 4 4 3 3 2 2 1 0 0 -0 -1 -1 -2 -2 -4 -4 -4 -4 -4 -4 -5 -6 -7 -8 -8 -9 -9 -10 -10 -10 -10 -11 -11 -10 -10 -10 -9 -9
6 5 5 4 4 3 3 2 2 2 1 0 0 -0 -1 -2 -3 -3 -3 -4 -5 -4 -5 -4 -5 -6 -7 -8 -9 -9 -10 -10 -11 -11 -11 -11 -11 -11 -10 -10 -10 -10 -9
5 4 4 3 3 3 2 2 2 1 0 -0 -1 -1 -2 -3 -4 -4 -5 -5 -5 -5 -5 -5 -6 -7 -8 -9 -10 -10 -11 -11 -12 -12 -12 -11 -11 -11 -11 -10 -11 -10 -11
4 4 3 2 2 2 2 1 1 -0 -1 -1 -2 -3 -4 -4 -4 -4 -5 -5 -5 -5 -5 -6 -6 -7 -9 -10 -10 -11 -12 -12 -13 -12 -12 -11 -11 -11 -11 -11 -10 -10 -10
3 3 2 2 2 1 1 -0 -1 -1 -2 -2 -3 -4 -4 -5 -5 -5 -5 -6 -5 -6 -6 -7 -7 -9 -9 -10 -11 -11 -13 -13 -13 -12 -12 -11 -11 -11 -11 -11 -11 -11 -10
2 2 1 1 1 0 -0 -1 -1 -2 -2 -3 -4 -5 -5 -5 -5 -5 -6 -6 -6 -7 -7 -8 -9 -9 -10 -10 -11 -13 -13 -13 -12 -12 -12 -12 -12 -12 -12 -12 -11 -11 -11
1 1 0 -0 -0 -1 -1 -2 -2 -3 -4 -4 -5 -5 -5 -6 -6 -6 -7 -7 -7 -8 -8 -9 -9 -10 -10 -11 -13 -13 -13 -13 -13 -13 -13 -13 -13 -13 -13 -13 -12 -12 -12
0 -0 -1 -1 -2 -2 -2 -3 -4 -5 -5 -5 -5 -6 -6 -7 -7 -7 -8 -8 -8 -9 -9 -9 -10 -10 -10 -11 -13 -13 -13 -13 -13 -13 -13 -14 -14 -14 -14 -13 -13 -12 -13

GFSMW_850_temp_033.txt.gz
Temp
13 14 15 15 15 15 16 15 13 13 12 12 12 12 12 12 11 11 11 10 10 9 9 9 8 8 7 7 6 6 6 6 6 6 6 5 4 4 5 4 4 4 4
13 14 14 14 14 13 14 13 13 13 12 12 12 11 11 11 11 10 10 10 10 9 8 7 7 7 6 6 6 6 5 5 4 3 3 3 2 3 2 3 3 3 3
13 13 13 14 14 14 13 13 13 13 12 12 12 11 11 11 11 10 10 9 8 8 7 6 6 6 5 5 4 3 3 2 2 2 2 1 1 1 1 1 1 1 2
13 13 13 13 13 13 12 12 12 12 12 12 11 11 11 10 10 9 9 8 7 6 6 5 5 4 4 4 2 1 1 1 1 1 0 0 -0 -1 -0 -1 0 1 1
14 13 13 13 12 12 12 12 11 11 11 11 11 10 10 9 8 8 7 7 6 6 5 5 4 3 3 2 1 1 0 -1 -1 -1 -1 -1 -1 -1 -2 -3 -3 -1 1
14 13 13 12 12 12 11 11 11 11 11 10 10 10 9 8 7 7 7 6 5 5 4 4 3 3 2 1 1 0 -1 -1 -1 -2 -2 -2 -2 -2 -2 -3 -3 -3 -1
12 12 13 12 12 11 11 11 10 10 10 10 9 9 8 8 7 6 6 5 5 4 4 3 2 2 2 1 -0 -1 -1 -1 -1 -2 -2 -2 -3 -3 -3 -3 -3 -3 -3
13 13 13 12 12 11 11 10 10 10 9 9 8 8 7 6 6 6 5 5 4 4 3 2 2 1 0 -0 -1 -1 -2 -2 -2 -2 -3 -3 -3 -3 -4 -4 -4 -4 -4
13 13 12 11 11 11 10 10 9 9 8 8 7 7 6 6 5 5 5 4 3 3 3 2 2 1 -0 -1 -2 -2 -2 -3 -3 -3 -3 -3 -4 -4 -4 -4 -4 -5 -5
11 11 11 11 10 10 9 9 9 8 7 7 6 6 5 5 5 4 3 3 3 2 2 1 1 -0 -1 -2 -2 -2 -3 -3 -3 -4 -4 -4 -4 -4 -4 -5 -5 -5 -5
11 10 10 9 9 9 8 8 7 7 6 6 6 5 5 4 3 3 3 2 2 1 1 -0 -2 -3 -3 -2 -2 -3 -3 -3 -4 -4 -4 -5 -5 -5 -5 -5 -5 -5 -5
9 9 9 9 8 8 8 7 6 6 6 5 5 4 4 3 3 2 2 1 1 0 -0 -1 -1 -2 -3 -3 -3 -3 -4 -4 -4 -5 -5 -5 -5 -6 -6 -6 -6 -6 -6
9 8 8 8 7 7 7 6 6 6 5 5 5 5 3 3 3 2 2 1 1 -0 -0 -2 -4 -4 -3 -3 -3 -3 -4 -4 -5 -5 -6 -6 -6 -7 -7 -7 -8 -8 -8
8 7 7 7 6 6 6 6 5 5 5 4 4 3 3 2 2 1 0 -0 -1 -1 -2 -2 -3 -3 -4 -4 -4 -4 -5 -5 -6 -6 -6 -7 -8 -8 -9 -9 -9 -9 -9
7 7 6 6 6 6 5 5 4 4 4 3 3 3 2 1 1 0 -1 -1 -1 -2 -2 -3 -4 -4 -5 -5 -5 -5 -5 -6 -6 -7 -8 -8 -9 -9 -10 -10 -10 -10 -10
6 6 6 6 6 5 4 4 4 3 3 2 2 1 1 0 -0 -1 -1 -2 -3 -3 -4 -4 -4 -5 -5 -5 -5 -6 -6 -6 -7 -8 -9 -9 -10 -10 -10 -10 -10 -11 -11
6 5 5 5 5 4 4 3 3 2 2 1 1 0 -0 -1 -1 -2 -2 -3 -3 -4 -4 -5 -6 -5 -6 -6 -6 -6 -7 -8 -9 -9 -10 -10 -11 -11 -11 -11 -11 -11 -10
5 5 5 4 4 3 3 3 2 2 1 1 0 -0 -1 -1 -2 -2 -3 -3 -4 -5 -4 -5 -5 -6 -6 -6 -6 -7 -8 -9 -9 -10 -10 -11 -11 -11 -12 -12 -11 -11 -10
5 5 4 4 3 3 3 2 2 1 1 0 -0 -1 -2 -2 -3 -3 -4 -4 -5 -5 -5 -5 -6 -6 -6 -7 -8 -9 -9 -9 -9 -10 -11 -11 -12 -11 -11 -11 -11 -11 -10
4 4 3 3 2 2 2 1 1 0 -0 -1 -2 -2 -3 -4 -4 -4 -5 -5 -5 -5 -6 -6 -6 -7 -7 -8 -9 -9 -9 -9 -10 -11 -11 -11 -11 -11 -11 -11 -11 -11 -10
4 3 3 2 2 1 1 0 -0 -1 -1 -2 -3 -3 -4 -4 -4 -5 -5 -5 -5 -6 -6 -7 -7 -7 -8 -9 -9 -10 -10 -11 -12 -12 -12 -12 -12 -12 -12 -11 -11 -11 -11
3 3 2 2 1 1 1 -0 -1 -2 -3 -3 -4 -5 -5 -5 -5 -6 -6 -6 -6 -7 -7 -7 -8 -8 -9 -10 -10 -10 -11 -12 -13 -12 -12 -13 -13 -12 -12 -12 -12 -12 -11
3 2 1 1 1 0 -1 -1 -2 -3 -3 -4 -5 -6 -6 -6 -6 -7 -7 -7 -7 -7 -8 -8 -9 -9 -9 -10 -10 -10 -11 -12 -13 -13 -13 -13 -13 -13 -12 -12 -12 -12 -12
2 1 1 1 0 -1 -1 -2 -3 -4 -5 -6 -6 -6 -6 -6 -6 -8 -8 -8 -8 -8 -9 -9 -9 -9 -10 -10 -10 -11 -12 -12 -12 -13 -13 -13 -13 -13 -13 -13 -13 -12 -12
1 1 0 -0 -1 -1 -2 -3 -3 -4 -5 -5 -6 -6 -7 -7 -7 -8 -8 -9 -9 -9 -9 -9 -9 -10 -10 -10 -11 -12 -12 -12 -12 -13 -13 -13 -13 -13 -13 -13 -13 -13 -13
0 -0 -0 -1 -1 -1 -2 -3 -4 -6 -6 -6 -6 -7 -7 -8 -9 -9 -9 -9 -9 -9 -9 -9 -10 -10 -10 -10 -12 -12 -12 -12 -12 -12 -13 -13 -13 -14 -14 -14 -14 -13 -13

GFSMW_850_temp_036.txt.gz
Temp
14 14 14 14 13 12 13 12 12 12 9 10 11 11 11 11 11 11 11 10 10 10 9 9 8 7 7 7 6 6 6 6 5 4 5 4 3 3 4 3 3 4 4
12 12 12 12 12 12 13 13 12 11 11 11 12 12 12 12 11 11 10 10 9 9 8 7 7 6 6 6 6 5 5 4 3 2 2 2 2 2 2 2 1 1 1
13 13 13 13 13 13 13 13 13 13 13 13 12 12 11 11 10 10 9 9 8 7 7 6 6 5 5 4 4 4 3 3 2 1 1 0 0 -0 0 1 1 0 1
13 13 13 13 13 13 13 13 12 12 12 11 11 11 10 10 9 9 8 8 7 6 6 5 5 4 4 4 3 2 1 1 -0 -0 -1 -1 -1 -2 -2 -2 -2 0 1
13 13 13 13 12 12 12 12 12 11 11 10 10 10 9 9 8 7 7 6 6 5 5 4 4 3 3 3 2 1 0 -1 -1 -1 -1 -2 -2 -2 -3 -3 -2 -3 -2
12 12 13 13 12 12 11 11 10 10 10 10 9 9 9 8 7 6 6 5 5 4 4 4 3 3 2 2 1 -0 -1 -1 -2 -2 -2 -2 -3 -3 -4 -3 -3 -3 -3
12 12 13 12 11 11 10 10 10 10 9 9 9 8 7 6 6 6 5 4 4 4 3 3 2 2 2 2 0 -1 -2 -2 -2 -2 -2 -3 -3 -3 -3 -4 -4 -4 -4
12 12 11 11 10 10 10 10 10 9 9 8 8 7 6 6 5 5 4 3 3 3 2 2 2 1 1 0 -0 -1 -2 -2 -2 -3 -3 -3 -3 -4 -4 -4 -5 -5 -5
11 11 11 10 10 10 10 9 9 9 8 7 6 6 5 5 4 4 3 3 2 2 1 1 1 0 -0 -1 -1 -2 -2 -2 -3 -3 -3 -4 -4 -4 -4 -5 -5 -6 -7
11 10 10 10 10 10 9 9 9 7 6 6 6 5 5 4 4 3 3 2 2 2 1 0 0 -1 -2 -3 -4 -3 -3 -3 -3 -4 -4 -4 -5 -5 -5 -5 -5 -5 -6
10 10 10 9 9 9 9 8 8 7 6 6 5 5 5 4 3 2 2 1 1 1 0 -0 -1 -1 -2 -3 -4 -4 -3 -4 -4 -4 -5 -5 -5 -5 -5 -6 -6 -6 -7
9 9 9 9 9 8 8 7 6 6 6 5 5 4 4 3 3 2 1 1 1 0 -1 -1 -1 -2 -2 -3 -4 -5 -4 -4 -4 -5 -5 -5 -6 -6 -6 -7 -8 -8 -8
8 8 8 8 7 7 7 6 6 6 5 4 4 3 3 2 1 1 0 -0 -1 -1 -2 -2 -2 -3 -3 -4 -5 -5 -5 -5 -5 -5 -6 -6 -6 -7 -8 -8 -9 -9 -9
8 8 8 7 7 6 5 6 5 5 4 4 3 3 2 1 0 0 -0 -1 -1 -2 -3 -3 -4 -4 -4 -5 -5 -5 -5 -6 -6 -6 -7 -7 -8 -9 -9 -9 -10 -10 -10
7 7 6 6 6 6 5 5 4 4 3 3 2 1 1 0 -0 -1 -1 -2 -2 -2 -4 -4 -4 -4 -5 -5 -5 -6 -6 -6 -6 -7 -7 -8 -9 -10 -10 -10 -11 -11 -11
7 6 6 6 5 5 5 4 4 3 2 2 1 1 0 -0 -1 -2 -2 -2 -3 -3 -4 -4 -4 -5 -6 -6 -6 -6 -6 -6 -7 -7 -8 -9 -10 -10 -11 -11 -11 -12 -12
6 6 5 5 5 4 4 3 2 2 1 1 1 -0 -1 -1 -2 -2 -3 -3 -3 -3 -5 -5 -5 -6 -6 -6 -6 -6 -7 -7 -8 -8 -9 -10 -10 -11 -11 -11 -11 -11 -11
6 5 5 4 4 3 3 2 2 1 1 0 -0 -1 -2 -2 -2 -3 -3 -4 -4 -5 -5 -6 -6 -6 -6 -6 -7 -7 -7 -8 -8 -9 -10 -11 -11 -11 -11 -11 -11 -11 -11
5 5 4 4 3 3 2 2 1 1 0 -1 -1 -2 -2 -3 -3 -4 -4 -5 -6 -6 -5 -6 -6 -6 -7 -7 -7 -8 -8 -8 -9 -10 -11 -12 -12 -12 -11 -11 -11 -11 -11
5 4 4 3 2 2 1 1 1 0 -1 -2 -2 -2 -3 -4 -4 -5 -5 -5 -6 -6 -6 -6 -7 -7 -7 -8 -9 -9 -9 -9 -9 -10 -11 -12 -12 -12 -12 -12 -12 -12 -11
4 4 3 2 2 1 1 0 -0 -1 -1 -2 -2 -3 -5 -5 -5 -5 -6 -6 -6 -6 -7 -7 -7 -8 -8 -9 -9 -10 -10 -10 -11 -12 -12 -12 -13 -13 -13 -12 -12 -12 -12
3 3 2 2 1 1 0 -0 -1 -1 -1 -2 -3 -4 -6 -6 -6 -6 -7 -7 -7 -7 -7 -8 -8 -9 -9 -9 -10 -10 -10 -11 -12 -12 -12 -13 -14 -13 -13 -13 -13 -12 -12
3 2 2 1 1 0 -0 -0 -1 -1 -2 -3 -4 -6 -6 -6 -7 -7 -7 -7 -7 -8 -8 -8 -9 -9 -10 -10 -10 -10 -10 -11 -11 -12 -12 -13 -13 -13 -13 -13 -13 -13 -12
2 2 1 1 -0 -0 -1 -1 -2 -2 -3 -4 -6 -6 -6 -7 -7 -7 -8 -8 -9 -9 -9 -9 -9 -10 -10 -10 -10 -10 -10 -11 -11 -11 -11 -13 -13 -13 -13 -13 -13 -13 -13
2 1 0 -0 -1 -1 -1 -2 -2 -2 -4 -6 -7 -7 -7 -7 -7 -8 -9 -9 -9 -9 -9 -10 -10 -10 -10 -10 -10 -11 -11 -11 -11 -11 -11 -12 -12 -12 -12 -12 -13 -13 -13
1 0 -1 -1 -1 -1 -2 -2 -3 -4 -6 -7 -7 -7 -7 -8 -8 -9 -9 -10 -10 -10 -10 -10 -10 -10 -10 -10 -10 -11 -11 -11 -11 -11 -11 -11 -12 -12 -12 -12 -12 -13 -13